カタログに戻る

SL-12 R/B(2)

運用中GEO
NORAD 21703·ROCKET BODY·🇷🇺 Russia

打ち上げ Sep 13, 1991 から Baikonur Cosmodrome

Loading…

TLE

最新Source: Space-Track

元期: Sep 14, 2026, 06:24 UTC

1 21703U 91064B   26257.26684426  .00000008  00000-0  00000-0 0  9991
2 21703  13.2549 339.2991 0002076 347.4889   5.0854  0.99884201121033

AllMySatでSL-12 R/B(2)をリアルタイム追跡

Download on the App Store